{"data":{"norad_id":64240,"epoch":"2026-09-20T15:19:32.733120Z","epoch_age_seconds":125592,"freshness":"FRESH","line1":"1 64240U 25119H   26263.63857330  .00138290  00000+0  10597-2 0  9994","line2":"2 64240  43.0005 114.1588 0002807 254.5793 105.4764 15.70920177 75907","mean_motion":15.70920177,"eccentricity":0.0002807,"inclination_deg":43.0005,"raan_deg":114.1588,"arg_perigee_deg":254.5793,"mean_anomaly_deg":105.4764,"bstar":0.0010597,"rev_number":7590,"period_min":91.666019768743,"perigee_km":354.37556354692,"apogee_km":358.15625734084,"semimajor_km":6734.4029104439,"source":"CELESTRAK","updated_at":"2026-09-21T09:00:35.277678Z"}}